Regional Weather Roundup
Issued by NWS

Home | Current Version | Previous Version | Graphics & Text | Print | Product List | Glossary On
Versions: 1 2 3 4 5 6 7 8 9 10 11 12 13 14 15 16 17 18 19 20 21 22 23 24 25 26 27 28 29 30 31 32 33 34 35 36 37 38 39 40 41 42 43 44 45 46 47 48 49 50
000
ASUS43 KBIS 210710
RWRND

NORTH DAKOTA REGIONAL WEATHER ROUNDUP
NATIONAL WEATHER SERVICE BISMARCK ND
100 AM CST TUE NOV 21 2017

NOTE: "FAIR" INDICATES FEW OR NO CLOUDS BELOW 12,000 FEET WITH NO
SIGNIFICANT WEATHER AND/OR OBSTRUCTIONS TO VISIBILITY.


NDZ001>003-009>011-017-210800-
NORTHWEST NORTH DAKOTA

CITY           SKY/WX    TMP DP  RH WIND       PRES   REMARKS
WILLISTON      CLOUDY     7  -1  70 N15       30.10R WCI -10
MINOT          CLEAR     11   3  70 W28G38    29.94R WCI -10
MINOT AFB      CLEAR     10   2  71 NW28G36   29.93R WCI -12
$$

NDZ018>021-031>035-040>046-210800-
SOUTHWEST NORTH DAKOTA

CITY           SKY/WX    TMP DP  RH WIND       PRES   REMARKS
BISMARCK       PTCLDY    20   6  55 NW21G36   29.96R WCI   4
DICKINSON      CLOUDY    14   1  56 NW23      29.96R WCI  -5
GARRISON         N/A     10   4  76 NW25G33   29.95R WCI -11
HETTINGER ARPT CLOUDY    24  11  57 NW16      29.95R WCI  11
$$

NDZ004>008-012>016-024-026-027-054-210800-
NORTHEAST NORTH DAKOTA

CITY           SKY/WX    TMP DP  RH WIND       PRES   REMARKS
GRAND FORKS    CLOUDY    21  12  68 NW26G41   29.72R WCI   4
GRND FRKS AFB  FLURRIES  19  10  68 NW22G32   29.74R WCI   3
DEVILS LAKE    MOCLDY    16  10  77 NW25G35   29.78R WCI  -3
$$

NDZ022-023-025-028>030-036>039-047>053-210800-
SOUTHEAST NORTH DAKOTA

CITY           SKY/WX    TMP DP  RH WIND       PRES   REMARKS
FARGO          LGT SNOW  25  17  72 NW28G38   29.71R WCI   9
JAMESTOWN      CLOUDY    17   8  67 NW30G39   29.81R WCI  -3
$$




USA.gov is the U.S. government's official web portal to all federal, state and local government web resources and services.